Wetbulb
67.62 68.84 71.41 71.25 71.46 72.01 72.22 72.33 72.56 73.01 73.49 73.53 73.35 73.24 73.11 73.14 72.93 72.65 72.68 72.72 73.05 73.50 73.47 72.90 73.52 73.45 72.89 72.62 72.41 72.08 72.04 71.53 71.15 71.17 71.27 71.30 70.85 70.88 70.73 70.50 70.21 69.00 70.77
68.14 70.28 70.95 71.09 71.82 71.89 72.31 72.39 72.42 72.97 73.46 73.72 73.31 73.09 72.93 72.93 72.57 72.63 72.90 72.62 73.10 73.45 72.79 73.18 73.50 73.13 72.26 71.79 71.64 71.37 71.27 70.69 70.44 70.42 70.90 70.78 70.61 70.24 70.24 69.99 69.86 69.16 70.29
68.30 70.17 70.74 71.07 71.75 72.09 72.30 72.39 72.67 73.19 73.69 73.70 73.28 72.96 72.93 72.79 72.50 72.60 72.65 72.44 72.85 72.42 71.62 73.08 72.95 72.47 71.86 71.57 70.95 70.81 70.47 70.15 69.79 69.77 70.12 68.29 68.29 69.88 69.92 69.64 69.86 69.88 70.01
68.79 69.74 70.25 71.20 71.50 71.04 72.12 72.22 72.50 72.33 73.26 73.27 73.15 72.96 72.71 72.53 72.43 72.45 72.22 71.70 72.04 72.44 72.88 72.88 72.08 71.69 71.36 70.72 70.33 70.04 69.98 69.60 69.07 68.57 67.22 67.27 67.53 69.46 69.46 69.23 69.06 68.97 68.85
68.73 69.47 69.95 70.95 70.95 70.59 71.81 71.80 72.09 72.31 71.42 72.39 72.52 72.74 72.57 72.33 72.40 72.40 71.16 71.57 72.23 72.53 72.71 72.09 71.89 71.47 70.49 69.61 69.43 69.17 68.81 68.35 67.82 66.37 65.95 65.96 66.56 68.22 68.78 68.22 67.59 67.90 68.03
68.73 69.14 69.11 70.08 70.67 70.76 71.69 71.87 71.87 71.68 71.39 71.31 71.67 72.00 72.36 72.27 72.21 71.96 71.19 71.24 71.51 71.57 72.04 71.74 71.35 70.33 69.32 68.70 68.37 68.20 67.74 66.94 65.68 64.86 65.34 66.60 65.75 67.59 67.38 65.94 66.39 66.22 66.35
68.17 69.05 69.30 69.11 70.34 70.49 71.16 71.90 71.57 71.09 70.71 70.95 71.12 70.46 70.84 70.55 70.38 70.57 69.82 69.88 70.37 70.60 71.07 70.73 70.05 69.23 68.39 67.87 67.58 67.00 66.34 65.76 63.54 63.43 64.20 64.66 65.29 66.96 66.52 65.30 64.80 64.75 64.72
66.99 68.27 68.49 69.80 70.21 70.08 70.47 70.98 70.41 70.26 70.29 70.04 69.54 69.56 69.66 69.79 69.42 69.01 69.28 69.36 69.34 69.67 70.04 69.62 68.75 68.23 67.78 67.26 66.58 65.74 65.01 64.58 62.21 62.06 63.29 64.73 66.84 66.64 65.90 64.58 64.21 63.95 63.89
65.80 66.97 68.32 69.09 70.28 69.42 69.24 68.71 68.26 68.12 67.80 67.95 67.98 68.03 68.52 68.30 68.14 68.14 69.19 69.00 68.37 68.97 68.77 68.36 67.89 67.42 67.04 66.38 65.41 64.38 63.54 62.75 59.63 61.89 63.00 63.44 65.82 65.72 64.91 64.03 63.16 63.15 62.80
64.80 65.25 67.29 68.70 69.69 69.52 68.98 67.13 66.31 65.88 65.97 66.08 66.46 66.13 65.75 65.46 66.02 66.90 67.83 67.71 68.49 68.26 68.49 67.82 66.65 66.91 66.14 65.32 64.35 63.28 62.75 61.73 58.46 59.29 61.70 62.87 65.14 65.14 63.94 63.12 63.04 62.19 62.14
63.46 64.07 65.56 67.56 68.54 69.18 67.31 66.95 66.37 66.19 65.64 65.15 65.22 64.68 63.67 63.87 64.01 64.42 66.31 66.81 66.62 66.84 67.32 66.10 66.40 65.92 65.10 64.27 63.83 62.82 60.84 57.84 57.97 57.74 59.84 63.94 63.72 63.57 63.35 62.78 62.09 61.93 61.97
62.45 62.93 64.25 65.86 66.88 67.00 66.75 66.59 65.47 64.68 64.32 64.08 63.87 63.21 62.91 63.46 63.20 63.43 65.37 65.39 66.07 65.82 65.72 65.27 65.48 64.66 63.03 61.37 61.57 60.69 58.34 57.59 58.00 57.87 58.82 63.24 64.15 63.65 63.56 62.64 62.05 61.76 61.84
62.52 62.17 63.23 63.59 64.87 64.37 64.89 65.55 65.14 64.97 64.21 64.07 63.30 63.14 62.62 62.69 63.81 63.97 64.52 64.45 64.45 64.88 62.69 62.49 63.52 61.23 59.92 60.04 57.07 57.91 57.78 57.84 57.72 58.26 60.52 63.20 64.27 63.65 63.15 62.18 62.34 62.30 61.77
60.14 62.00 62.63 64.17 62.68 63.77 64.32 64.42 64.25 64.65 64.08 63.26 62.98 62.24 62.20 62.21 62.99 62.97 63.58 63.53 63.51 62.96 59.96 60.52 60.69 59.03 58.52 57.34 57.26 57.43 57.74 57.63 57.61 57.94 60.54 62.38 63.50 63.39 63.06 63.06 62.65 61.97 61.37
59.80 60.45 61.11 63.34 63.50 63.04 62.54 63.00 63.37 63.19 63.72 62.76 61.39 62.32 62.58 62.44 62.71 62.31 63.57 63.14 63.23 60.28 58.05 57.26 57.28 58.00 56.42 56.14 56.71 57.48 57.01 57.11 57.54 58.30 59.16 61.73 62.49 63.44 63.24 63.34 62.70 62.07 61.63
58.59 60.06 60.14 61.66 63.05 63.09 62.34 62.12 61.84 62.20 62.42 62.26 60.84 61.49 63.31 63.09 63.23 62.88 63.24 62.40 61.13 60.34 57.29 55.51 56.67 57.08 56.44 56.62 56.12 56.37 56.86 57.61 57.56 57.84 58.39 60.01 61.12 62.29 62.23 62.28 62.19 62.14 61.54
58.48 58.76 58.92 59.25 61.24 62.01 61.91 61.54 61.09 61.13 61.20 61.18 60.99 60.38 63.06 62.76 62.43 63.10 62.28 60.76 60.24 59.33 56.35 54.61 54.29 55.21 55.69 56.04 55.73 55.93 56.70 57.45 57.41 57.23 57.49 58.18 59.57 60.25 61.44 62.42 62.26 61.45 61.23
57.44 57.86 57.24 59.09 60.89 61.60 61.63 61.45 60.94 60.53 60.57 60.83 61.02 60.45 62.26 62.77 62.98 62.51 61.79 60.25 59.62 58.09 55.72 54.97 54.98 54.99 54.95 54.99 54.32 54.83 55.89 56.61 56.46 56.68 56.96 57.39 57.53 58.24 59.97 60.99 61.43 61.81 60.87
57.31 56.62 55.81 56.00 59.43 61.49 61.84 61.69 61.68 60.45 60.30 60.55 61.46 61.22 60.83 62.85 63.03 62.57 61.40 59.73 57.11 56.55 55.86 53.93 52.97 55.49 54.77 54.55 54.73 54.43 54.71 55.00 55.32 56.54 55.82 56.11 56.55 57.05 57.40 59.98 60.06 60.17 60.86
56.24 55.92 56.80 54.67 56.74 59.96 61.60 62.45 62.38 60.59 60.61 60.91 61.43 62.05 61.40 61.76 62.84 62.20 60.07 57.63 57.72 56.13 55.34 54.16 53.53 54.34 55.26 54.87 55.55 53.85 53.50 54.13 54.89 54.87 54.83 55.86 55.72 56.26 56.99 58.02 58.73 58.39 59.22
54.99 56.42 56.70 55.45 55.47 58.52 59.17 59.91 60.34 59.93 60.11 60.45 61.93 62.51 62.16 61.77 62.31 60.26 57.54 55.87 56.59 56.03 54.91 54.22 53.68 53.32 52.61 54.18 52.69 51.22 51.54 53.03 53.86 54.01 54.69 54.81 55.16 55.79 56.40 56.95 57.71 57.52 58.40
55.62 56.40 56.34 56.77 56.54 58.81 57.70 59.36 59.89 59.91 60.95 61.17 61.82 61.09 60.27 59.47 58.58 57.96 56.07 55.61 54.56 54.39 54.63 54.54 53.69 51.52 51.83 54.60 51.53 50.64 48.64 50.85 53.00 54.26 54.63 55.01 55.13 56.03 55.92 56.39 56.54 57.12 57.15
55.26 55.32 55.28 56.05 56.63 57.56 59.16 58.63 58.75 59.31 59.09 59.91 60.80 59.95 59.24 58.19 56.99 57.26 55.93 55.32 53.85 54.40 54.15 54.76 53.54 52.91 52.86 52.47 54.88 51.60 47.86 48.29 50.47 52.15 53.22 54.57 54.87 54.89 56.02 56.18 56.20 56.56 57.16
55.78 56.06 55.76 55.73 56.23 56.93 58.09 58.11 57.43 57.52 56.98 57.78 59.37 60.36 58.54 57.72 56.76 57.15 56.00 54.88 54.63 54.73 54.54 55.40 55.11 53.82 53.92 51.71 51.63 53.30 52.72 51.48 49.55 47.66 51.39 53.28 54.61 53.98 54.87 55.12 55.87 56.28 56.65
56.32 55.87 56.02 55.28 55.67 57.92 57.71 58.13 57.89 56.96 57.28 58.18 58.97 58.73 58.92 58.43 57.20 57.59 58.23 56.47 55.59 55.93 56.20 56.13 55.30 54.57 54.26 53.01 51.82 52.55 52.68 52.97 52.27 49.47 48.03 50.31 51.13 53.17 54.84 55.02 55.26 55.66 56.10
55.89 55.50 55.75 55.50 55.95 57.32 57.50 57.77 57.15 56.18 56.94 57.26 57.14 57.08 57.92 58.20 58.01 57.62 57.97 58.35 58.12 57.21 57.16 56.34 55.91 55.28 54.18 53.67 53.15 53.56 53.01 51.99 51.63 51.07 49.75 49.97 49.75 51.08 52.51 53.48 54.10 54.71 55.63
MSLP
1007.96 1008.33 1008.65 1008.92 1009.19 1009.28 1009.40 1009.66 1009.64 1009.66 1009.71 1010.10 1010.68 1011.04 1011.41 1011.90 1012.44 1012.85 1013.38 1013.58 1013.49 1013.79 1014.08 1014.58 1014.97 1015.26 1015.51 1015.87 1016.24 1016.46 1016.75 1017.12 1017.32 1017.58 1017.79 1018.05 1018.35 1018.63 1018.86 1019.06 1019.24 1019.37 1019.50
1007.26 1007.93 1008.47 1008.85 1009.15 1009.37 1009.45 1009.66 1009.75 1009.86 1009.96 1010.20 1010.62 1011.23 1011.65 1012.05 1012.37 1012.95 1013.43 1013.52 1013.65 1014.04 1014.30 1014.71 1015.16 1015.44 1015.85 1016.32 1016.56 1016.89 1017.18 1017.53 1017.73 1018.01 1018.16 1018.40 1018.70 1019.11 1019.38 1019.53 1019.69 1019.89 1019.96
1007.39 1007.86 1008.36 1008.70 1009.07 1009.36 1009.53 1009.60 1009.94 1010.14 1010.31 1010.48 1010.74 1011.20 1011.71 1012.23 1012.61 1012.94 1013.41 1013.58 1013.81 1014.15 1014.59 1014.88 1015.19 1015.60 1016.22 1016.66 1016.90 1017.21 1017.58 1017.89 1018.13 1018.45 1018.64 1018.94 1019.17 1019.48 1019.87 1020.00 1020.21 1020.35 1020.44
1007.29 1007.78 1008.28 1008.66 1008.99 1009.17 1009.45 1009.68 1009.92 1010.31 1010.56 1010.70 1010.92 1011.23 1011.72 1012.24 1012.73 1013.02 1013.63 1013.64 1013.99 1014.38 1014.77 1014.95 1015.39 1015.96 1016.44 1016.97 1017.27 1017.52 1017.88 1018.27 1018.49 1018.71 1019.05 1019.29 1019.58 1019.88 1020.17 1020.45 1020.66 1020.86 1021.01
1007.47 1007.72 1008.28 1008.78 1009.09 1009.26 1009.43 1009.70 1010.08 1010.29 1010.56 1011.10 1011.58 1011.99 1012.42 1012.67 1012.85 1013.58 1013.75 1013.86 1014.19 1014.68 1014.88 1015.13 1015.50 1016.20 1016.71 1017.12 1017.63 1017.89 1018.24 1018.59 1018.95 1019.17 1019.49 1019.87 1020.13 1020.25 1020.53 1020.82 1021.08 1021.41 1021.62
1007.64 1007.81 1008.13 1008.70 1009.12 1009.39 1009.69 1009.85 1010.12 1010.55 1011.00 1011.25 1011.48 1012.04 1012.53 1013.38 1013.26 1013.55 1014.18 1014.42 1014.80 1014.95 1015.21 1015.48 1015.90 1016.56 1016.98 1017.27 1017.89 1018.24 1018.59 1018.87 1019.23 1019.67 1020.04 1020.29 1020.49 1020.63 1020.77 1021.41 1021.75 1021.95 1022.10
1007.73 1007.97 1008.19 1008.65 1009.14 1009.49 1009.82 1010.06 1010.39 1010.76 1011.22 1011.47 1011.72 1011.83 1012.35 1013.07 1013.90 1014.10 1014.54 1014.91 1015.16 1015.35 1015.58 1015.94 1016.41 1017.19 1017.41 1017.61 1018.09 1018.65 1018.92 1019.26 1019.79 1020.19 1020.51 1020.77 1020.82 1021.03 1021.72 1021.99 1022.36 1022.56 1022.81
1007.45 1007.84 1008.13 1008.45 1008.98 1009.42 1009.84 1010.10 1010.43 1010.82 1011.24 1011.45 1011.73 1011.70 1012.58 1012.43 1013.70 1014.59 1015.00 1015.13 1015.45 1015.67 1015.88 1016.43 1016.94 1017.52 1017.95 1018.12 1018.42 1018.92 1019.32 1019.69 1020.24 1020.46 1020.75 1020.84 1021.24 1021.76 1022.20 1022.59 1022.80 1023.06 1023.39
1007.57 1007.97 1008.28 1008.31 1008.87 1009.30 1009.81 1010.16 1010.50 1010.87 1011.22 1011.53 1011.97 1012.46 1013.01 1013.16 1013.14 1014.88 1014.47 1015.13 1015.84 1015.63 1016.27 1016.92 1017.33 1017.92 1018.24 1018.58 1018.85 1019.23 1019.71 1020.10 1020.47 1020.50 1020.87 1021.49 1021.75 1022.21 1022.68 1022.93 1023.14 1023.45 1023.80
1007.75 1008.03 1008.29 1008.45 1008.63 1009.24 1009.73 1010.28 1010.64 1011.08 1011.49 1011.73 1012.10 1012.62 1013.28 1013.54 1014.30 1014.97 1014.30 1015.53 1015.37 1015.93 1016.54 1017.10 1017.58 1018.24 1018.56 1018.97 1019.27 1019.63 1020.05 1020.27 1020.49 1020.87 1021.50 1021.88 1022.15 1022.56 1023.00 1023.13 1023.44 1023.75 1024.15
1007.87 1007.99 1008.30 1008.43 1008.52 1008.82 1009.44 1010.21 1010.70 1011.10 1011.50 1011.86 1012.22 1012.53 1012.95 1013.39 1014.87 1014.99 1015.03 1015.19 1015.59 1015.79 1016.82 1017.33 1017.86 1018.46 1018.92 1019.35 1019.78 1020.04 1020.30 1020.78 1020.92 1021.53 1021.89 1022.20 1022.37 1022.60 1023.18 1023.40 1023.67 1024.04 1024.38
1007.75 1007.94 1008.09 1008.33 1008.56 1008.69 1009.08 1009.78 1010.42 1011.11 1011.63 1011.82 1012.31 1012.49 1012.94 1013.17 1014.30 1014.25 1014.67 1015.47 1015.84 1016.03 1016.97 1017.50 1018.23 1018.83 1019.33 1019.81 1020.17 1020.48 1020.79 1021.19 1021.46 1021.98 1022.14 1022.38 1022.58 1022.94 1023.41 1023.68 1023.93 1024.23 1024.69
1007.19 1007.52 1007.85 1008.19 1008.53 1008.71 1009.00 1009.49 1010.12 1010.74 1011.35 1012.00 1012.32 1012.78 1012.96 1013.51 1014.01 1014.06 1014.59 1015.24 1016.02 1016.47 1017.05 1017.74 1018.47 1019.07 1019.67 1020.03 1020.57 1020.96 1021.17 1021.42 1021.78 1022.15 1022.33 1022.39 1022.67 1023.14 1023.48 1023.85 1024.23 1024.56 1024.90
1006.90 1007.20 1007.61 1008.02 1008.49 1008.61 1008.74 1009.25 1009.65 1010.24 1010.82 1011.53 1011.97 1012.45 1012.95 1013.43 1013.80 1013.99 1014.41 1015.01 1015.77 1016.38 1017.00 1017.88 1018.31 1019.09 1019.83 1020.26 1020.67 1021.16 1021.44 1021.75 1022.08 1022.23 1022.40 1022.55 1022.85 1023.29 1023.67 1024.01 1024.40 1024.79 1025.01
1006.58 1006.88 1007.21 1007.60 1008.20 1008.49 1008.77 1009.01 1009.49 1009.94 1010.35 1010.88 1011.62 1012.10 1012.37 1013.00 1013.42 1013.80 1014.28 1014.94 1015.49 1016.35 1016.93 1017.82 1018.38 1018.97 1019.91 1020.50 1020.93 1021.25 1021.71 1022.03 1022.31 1022.44 1022.61 1022.85 1023.13 1023.50 1023.90 1024.01 1024.42 1024.76 1025.17
1006.10 1006.40 1006.79 1007.28 1007.84 1008.27 1008.53 1008.68 1009.09 1009.52 1009.89 1010.62 1011.25 1011.75 1011.91 1012.26 1012.72 1013.52 1014.04 1014.84 1015.32 1016.09 1016.80 1017.83 1018.18 1018.80 1019.80 1020.40 1021.07 1021.50 1021.80 1022.00 1022.34 1022.54 1022.88 1023.10 1023.49 1023.75 1023.93 1023.98 1024.40 1024.75 1025.16
1005.29 1005.97 1006.40 1007.05 1007.70 1008.02 1008.27 1008.50 1008.84 1009.17 1009.51 1010.23 1010.62 1011.34 1011.41 1011.77 1012.35 1012.81 1013.67 1014.61 1015.18 1015.97 1016.72 1017.84 1018.58 1019.20 1019.70 1020.74 1021.02 1021.59 1021.87 1022.13 1022.49 1022.71 1022.94 1023.26 1023.66 1023.97 1024.06 1024.30 1024.59 1024.89 1025.23
1004.95 1005.58 1006.28 1006.95 1007.47 1007.80 1007.98 1008.31 1008.60 1008.96 1009.34 1009.90 1010.32 1010.77 1011.07 1011.45 1011.93 1012.43 1013.43 1014.43 1015.16 1015.88 1016.77 1017.62 1018.49 1019.33 1019.89 1020.70 1021.30 1021.93 1022.12 1022.39 1022.78 1023.01 1023.21 1023.58 1023.95 1024.12 1024.27 1024.50 1024.82 1025.07 1025.40
1004.55 1005.32 1006.10 1006.91 1007.34 1007.52 1007.74 1008.04 1008.34 1008.66 1009.14 1009.53 1009.84 1010.37 1010.76 1011.10 1011.67 1012.12 1013.11 1014.32 1015.14 1015.79 1016.73 1017.58 1018.54 1019.01 1019.75 1020.64 1021.36 1021.81 1022.23 1022.38 1022.88 1023.12 1023.42 1023.79 1024.16 1024.31 1024.48 1024.61 1024.93 1025.10 1025.37
1004.27 1005.02 1005.86 1006.89 1007.14 1007.35 1007.44 1007.68 1008.01 1008.35 1008.70 1008.97 1009.50 1009.70 1010.28 1010.71 1011.24 1012.01 1013.02 1014.05 1014.71 1015.72 1016.79 1017.58 1018.41 1019.09 1019.49 1020.31 1021.34 1022.12 1022.66 1022.76 1022.98 1023.17 1023.53 1023.92 1024.32 1024.44 1024.57 1024.71 1024.99 1025.26 1025.29
1004.19 1004.86 1005.65 1006.60 1006.90 1007.21 1007.27 1007.42 1007.61 1007.81 1008.16 1008.46 1008.86 1009.01 1009.59 1010.21 1010.81 1011.44 1012.89 1014.01 1014.53 1015.26 1016.36 1017.28 1018.27 1018.93 1019.98 1020.34 1021.31 1022.57 1022.99 1023.17 1023.40 1023.62 1023.66 1023.96 1024.25 1024.44 1024.54 1024.59 1024.86 1025.24 1025.26
1003.72 1004.43 1005.37 1006.05 1006.54 1006.73 1006.98 1007.20 1007.36 1007.50 1007.77 1008.03 1008.29 1008.72 1009.10 1009.99 1010.49 1011.38 1012.59 1013.70 1014.34 1015.24 1016.34 1017.06 1017.69 1018.75 1019.66 1020.03 1020.74 1021.84 1023.09 1023.62 1023.54 1023.42 1023.45 1023.49 1023.88 1024.36 1024.44 1024.37 1024.57 1024.89 1025.01
1003.23 1003.90 1004.90 1005.56 1006.07 1006.45 1006.68 1007.06 1007.45 1007.62 1007.69 1007.81 1007.81 1008.08 1009.12 1009.93 1010.54 1011.36 1012.33 1013.31 1014.21 1015.00 1015.88 1016.59 1017.36 1017.76 1018.79 1019.79 1019.76 1020.29 1021.89 1022.48 1023.18 1023.24 1023.26 1023.56 1023.41 1023.98 1023.87 1023.97 1024.00 1024.30 1024.55
1002.54 1003.63 1004.57 1005.33 1005.78 1006.19 1006.55 1006.80 1007.19 1007.36 1007.51 1007.58 1007.37 1007.81 1009.10 1009.89 1010.79 1011.35 1012.18 1013.03 1013.85 1014.94 1015.66 1016.40 1017.15 1017.51 1017.93 1019.19 1019.73 1019.77 1019.88 1020.67 1021.89 1022.90 1022.92 1022.98 1023.17 1023.31 1023.48 1023.59 1023.52 1023.74 1023.98
1002.42 1003.37 1004.25 1005.01 1005.51 1005.85 1006.28 1006.56 1007.01 1007.29 1007.48 1007.82 1007.61 1008.12 1008.96 1010.05 1010.87 1011.51 1012.03 1012.87 1013.82 1014.70 1015.43 1016.08 1016.73 1017.38 1017.73 1018.44 1018.91 1019.64 1020.02 1020.43 1020.63 1021.45 1022.16 1022.51 1022.96 1022.61 1022.61 1022.89 1023.01 1023.11 1023.22
1002.64 1003.43 1004.03 1004.70 1005.14 1005.44 1005.95 1006.35 1006.82 1007.23 1007.60 1007.86 1007.96 1008.39 1008.94 1009.93 1010.84 1011.67 1012.27 1012.90 1013.89 1014.79 1015.29 1015.81 1016.39 1017.01 1017.46 1017.82 1018.31 1018.78 1019.21 1019.88 1020.23 1020.78 1021.60 1021.61 1021.82 1021.67 1021.59 1022.01 1022.29 1022.34 1022.37
Wind_Speed
5 8 13 15 15 13 12 12 12 14 19 22 22 23 23 22 21 20 17 16 19 19 20 20 19 19 19 20 19 18 19 19 19 19 20 22 23 23 21 20 18 16 21
9 12 14 15 14 14 12 13 13 15 19 21 22 22 22 22 22 19 16 18 19 20 22 22 21 19 21 21 20 20 19 17 18 19 20 22 23 23 22 19 18 17 22
8 11 12 15 16 15 13 15 14 15 18 21 23 23 22 21 20 19 19 19 20 21 22 21 21 21 23 20 19 20 19 18 18 18 18 11 14 23 22 20 20 20 20
9 9 11 14 16 20 16 15 15 18 17 19 21 23 22 22 20 20 18 19 19 20 22 22 23 23 22 20 20 20 19 17 18 16 10 11 13 22 22 21 21 21 21
8 9 12 14 15 19 17 15 15 16 18 17 17 18 18 19 20 17 16 17 20 21 21 22 23 22 21 21 20 20 19 17 16 12 10 7 7 17 20 19 18 19 17
8 8 10 14 14 17 16 16 14 14 14 16 19 18 17 15 18 18 14 16 19 20 20 21 21 22 21 21 20 19 19 18 15 10 9 11 8 19 20 17 16 16 16
9 8 11 15 13 15 16 16 15 13 14 15 17 21 21 18 14 14 14 16 16 18 19 20 21 20 20 21 20 19 19 18 9 8 7 8 11 21 18 17 16 17 17
10 11 11 16 15 14 15 15 15 16 15 14 12 15 15 17 14 12 14 13 14 13 19 20 21 19 19 19 19 18 17 16 9 9 8 9 17 19 18 17 17 17 17
6 7 7 11 12 11 12 12 15 17 19 17 14 12 10 13 17 16 17 14 13 17 19 19 19 19 19 18 18 16 15 13 7 7 10 6 18 18 17 18 17 17 17
6 6 11 9 10 9 7 17 21 22 21 20 20 19 15 12 6 10 16 18 16 18 18 19 19 19 18 16 16 15 14 13 8 7 7 6 17 18 17 18 18 18 18
4 6 7 11 10 11 10 14 21 22 22 21 20 22 15 9 6 5 7 12 19 19 17 17 17 17 16 15 15 15 12 4 7 5 5 13 16 18 17 18 18 18 18
8 6 7 9 10 10 9 13 13 13 9 10 8 12 10 12 13 15 10 9 17 17 17 17 18 17 12 6 7 10 5 5 6 4 3 14 16 18 18 18 18 18 17
9 5 8 7 9 11 9 8 6 7 8 7 8 8 8 7 9 8 7 6 7 14 9 11 12 7 8 7 4 5 6 6 4 3 6 13 16 19 18 18 17 17 17
9 10 8 10 9 8 7 7 8 8 8 8 8 11 7 6 7 6 6 8 9 7 10 8 7 6 6 7 7 7 6 5 4 3 6 11 14 18 18 18 17 17 17
10 10 11 11 10 8 9 6 7 7 8 8 8 11 9 9 9 8 7 7 8 7 8 8 8 9 6 7 6 7 7 5 5 3 2 11 12 15 17 18 18 18 17
9 12 10 11 10 9 8 9 7 7 7 8 8 9 13 9 8 10 8 9 8 9 8 7 9 9 8 8 7 6 6 7 5 5 3 5 10 11 15 17 17 17 17
10 10 12 10 12 10 9 8 6 6 7 7 8 10 12 11 11 11 9 9 9 7 11 7 7 6 9 5 7 5 5 6 5 5 4 4 5 9 10 12 15 16 16
8 12 8 6 9 10 9 8 6 7 7 7 7 9 9 12 13 11 9 8 8 8 8 8 8 7 8 7 5 4 4 4 5 5 4 3 3 3 6 10 11 13 14
10 10 9 7 9 8 8 8 8 9 7 7 7 9 11 10 11 11 10 10 10 9 9 8 5 9 8 7 7 5 4 5 5 4 5 5 5 4 3 8 10 11 12
10 9 9 5 7 5 4 6 6 7 8 8 8 9 14 9 12 12 9 10 11 10 9 9 10 3 8 9 7 5 3 3 3 4 4 3 4 5 4 4 4 5 11
10 13 12 8 7 7 4 5 4 8 8 8 9 11 14 14 13 14 10 11 11 12 12 11 9 10 4 6 8 3 3 3 2 2 3 3 4 5 5 5 4 3 5
14 14 11 11 8 6 4 3 2 2 4 7 9 10 12 12 14 13 13 12 11 10 12 12 12 5 4 8 5 4 3 2 1 4 3 5 6 4 6 7 6 7 6
16 15 13 11 10 8 5 4 2 3 2 5 8 10 10 12 11 12 12 11 10 10 11 12 11 9 8 4 10 6 4 4 3 2 6 6 6 6 7 7 8 9 9
15 13 12 12 12 8 7 6 6 2 3 1 3 8 10 13 11 10 12 11 11 8 10 10 9 6 8 9 1 1 3 6 4 2 2 6 7 8 8 6 8 9 9
13 13 12 12 11 9 7 7 5 5 3 4 5 10 12 12 11 8 10 11 9 7 8 10 8 6 7 7 4 3 2 2 3 3 3 3 3 6 7 9 7 7 9
11 12 11 14 11 9 8 7 7 8 7 5 6 8 9 9 10 10 8 7 5 5 7 7 6 7 7 6 6 4 4 4 4 4 2 3 4 4 7 7 8 8 8
Wind_Direction
212 159 162 165 162 157 143 137 135 134 136 140 143 143 142 143 144 142 142 138 134 132 131 129 127 127 132 125 123 118 112 114 117 118 117 114 111 107 102 97 97 99 98
127 154 160 167 163 162 149 143 142 140 138 140 142 142 143 144 144 142 141 136 133 132 133 133 130 130 126 128 124 118 114 115 114 116 116 115 111 108 103 98 98 100 100
133 147 159 164 162 161 160 147 145 142 140 143 144 146 146 148 146 144 145 138 138 139 142 138 135 133 132 128 121 119 118 116 114 112 106 107 109 111 104 100 101 98 98
143 154 161 166 166 169 163 155 147 149 145 146 148 150 151 150 149 145 148 141 142 141 144 140 137 137 133 127 126 123 118 113 111 106 106 110 116 114 109 107 105 103 100
148 156 168 168 169 174 163 156 151 155 157 148 144 143 145 149 147 151 149 145 144 147 146 145 142 136 131 127 125 120 115 110 103 98 95 88 110 119 113 108 99 101 105
153 157 159 164 171 174 165 156 159 146 143 144 145 146 149 154 151 147 148 146 150 150 151 146 141 135 133 128 125 119 115 107 97 99 104 109 107 112 98 101 110 102 96
154 166 171 172 171 178 173 157 153 146 142 144 148 151 148 155 156 145 150 156 156 152 150 145 133 139 133 130 126 122 115 110 106 101 104 112 111 105 117 121 120 118 112
157 169 176 174 176 178 173 158 151 148 146 151 143 138 148 137 144 163 164 157 160 165 141 138 139 137 135 130 125 121 117 115 109 111 113 100 115 123 127 127 121 117 116
146 153 170 178 179 173 164 146 138 132 131 125 136 147 138 153 154 184 161 165 183 146 143 141 135 138 134 131 126 121 117 119 118 109 95 110 121 128 133 129 127 123 124
156 160 175 176 171 177 172 144 137 134 135 135 128 122 117 86 63 177 157 184 155 149 144 141 137 141 135 131 124 122 119 104 98 96 109 131 135 137 138 135 130 129 129
171 172 169 175 182 179 149 156 150 148 148 146 143 137 128 143 181 226 193 176 172 150 140 137 137 137 129 122 118 117 103 99 101 92 138 145 151 145 144 138 137 135 135
191 182 176 179 182 180 164 165 163 163 159 157 157 156 156 157 189 189 179 198 184 148 134 130 130 131 122 123 121 107 110 105 109 115 137 155 153 144 144 143 141 140 140
187 169 181 174 184 181 168 171 170 167 170 181 170 176 171 177 185 181 181 176 182 147 136 131 134 133 130 134 105 117 120 117 122 124 164 158 151 151 152 149 143 145 141
179 181 176 181 187 185 176 170 177 177 172 182 183 177 175 178 188 170 172 167 185 156 135 137 139 127 125 113 125 127 126 132 135 132 165 155 154 157 154 153 151 149 148
193 180 182 178 182 180 185 174 177 179 180 178 173 183 180 186 180 166 163 162 148 142 132 137 141 136 125 123 124 141 139 133 134 127 131 155 155 161 160 156 159 155 156
185 190 173 182 184 178 185 177 177 171 166 168 165 188 182 178 173 173 159 150 145 153 138 142 149 148 137 145 135 138 151 146 134 136 136 150 158 167 171 164 163 161 162
190 169 172 175 188 185 184 180 176 171 162 173 175 180 179 174 169 156 150 150 155 147 138 125 123 125 125 142 139 140 139 148 144 143 134 139 161 174 171 166 168 168 167
150 167 156 164 185 190 181 178 177 173 172 177 174 177 179 180 176 152 160 154 155 145 144 146 146 144 139 151 130 142 138 126 130 140 136 133 150 158 170 167 174 173 176
156 154 158 167 185 181 185 179 184 179 179 185 174 183 186 182 177 165 162 159 151 146 152 147 137 150 146 147 147 130 136 141 151 151 150 157 174 165 165 179 179 180 182
149 146 148 166 177 180 163 167 177 181 190 178 187 189 186 191 178 167 154 152 156 153 156 158 156 139 150 151 141 114 77 100 145 150 161 164 185 185 183 180 182 197 190
146 151 165 166 172 184 175 172 182 181 190 187 190 187 185 190 181 160 150 150 160 165 165 159 154 141 110 132 114 77 63 82 128 176 162 181 196 203 195 186 186 200 207
160 159 165 182 177 183 181 177 155 134 192 189 187 165 146 155 152 154 154 162 160 151 163 162 167 133 111 166 136 115 120 26 258 204 186 200 201 205 214 204 194 203 204
168 162 170 175 185 185 157 143 111 110 84 175 191 151 145 143 148 150 153 157 159 158 170 169 168 160 155 191 172 140 136 190 149 164 208 221 198 211 218 214 208 212 211
168 161 162 173 183 182 159 155 173 190 152 7 130 137 140 144 148 148 149 154 152 162 172 178 174 168 149 171 131 26 82 138 162 174 220 218 212 206 218 222 214 218 216
157 165 164 171 181 163 165 158 158 138 117 124 129 139 142 147 148 136 136 143 155 164 167 170 162 165 157 161 155 135 113 81 97 134 185 192 207 219 211 220 219 219 218
162 170 162 170 177 162 154 145 153 136 136 141 134 144 145 143 146 144 138 133 136 153 158 164 165 166 167 162 182 171 159 165 168 140 163 181 199 208 212 211 214 223 224